Wind_Speed
34 34 34 35 35 35 35 35 36 36 37 38 38 39 39 40 40 40 41 41 41 41 42 42 42 42 42 42 42 42 42 42 41 41 41 41 40 40 40 40 40 39 38 38 38 37 37 37 36 35 34 34 33 33 33 32 31 31 31 30 29 28 27 27 27 29 33 35 37 39 42 43 42 43 43 43 43 42 42 42 42 41 41 40 39
33 33 33 34 34 35 35 36 37 38 39 40 40 41 41 42 42 42 43 43 44 44 44 45 45 45 45 44 44 44 44 44 44 44 43 42 42 42 42 42 42 41 41 41 40 40 40 40 39 38 37 36 36 35 35 35 34 34 33 32 31 30 29 28 28 28 30 33 34 35 39 42 43 44 44 44 44 44 43 44 44 43 43 42 42
32 33 34 35 36 37 38 39 40 40 41 41 42 42 43 43 43 43 44 44 44 44 44 45 45 45 45 45 45 45 45 46 46 46 46 46 45 44 43 43 43 43 43 43 43 43 43 43 43 42 40 39 39 38 38 38 37 37 36 34 34 33 31 30 30 29 31 33 33 33 36 39 40 42 43 44 45 45 45 45 45 45 45 44 43
33 35 37 38 39 40 40 41 41 42 42 42 42 43 43 43 43 42 42 42 42 42 42 42 42 42 42 42 43 43 44 44 44 45 46 47 48 47 47 46 45 45 45 44 44 44 45 45 45 45 44 43 42 41 40 40 40 40 39 38 36 35 34 32 32 32 32 34 34 33 34 35 37 39 43 45 47 47 47 46 46 46 46 46 45
36 38 39 40 40 41 41 41 41 41 41 41 42 42 41 41 41 40 40 40 39 39 39 39 39 39 39 39 39 39 39 39 40 41 42 43 44 46 48 48 48 48 47 46 46 45 45 46 46 46 46 46 45 44 43 43 42 42 42 41 40 38 37 35 34 34 33 34 35 35 34 34 34 36 40 44 47 49 50 49 48 48 48 47 46
38 39 40 40 40 40 40 40 40 40 40 40 40 40 39 38 37 37 36 36 36 36 36 37 37 38 38 38 38 37 37 36 36 37 37 38 39 41 43 45 47 49 49 49 48 47 46 46 46 47 47 47 47 46 45 44 44 44 43 43 43 42 40 38 36 36 35 35 36 36 36 35 34 35 36 39 43 47 51 52 52 50 50 49 48
39 40 40 40 40 39 38 38 38 38 38 38 37 36 35 34 32 32 32 32 33 34 35 36 37 38 39 39 39 38 37 36 36 35 35 35 36 36 37 39 42 45 47 49 49 49 49 48 47 47 47 47 47 47 47 46 45 45 45 45 45 45 43 41 39 38 37 36 37 37 37 36 35 35 35 36 38 41 46 53 56 54 52 52 50
40 40 40 40 38 37 36 36 36 35 35 34 33 31 30 29 29 29 30 31 32 34 35 37 38 39 40 40 41 40 39 38 38 37 37 37 36 35 35 35 36 39 42 45 47 48 49 50 49 48 47 47 47 47 47 47 46 46 46 46 46 46 45 44 42 40 39 38 38 38 38 38 37 37 36 36 37 37 39 45 54 56 54 52 50
40 40 39 38 36 35 34 34 33 33 32 30 29 27 26 27 28 29 31 32 34 35 36 37 38 39 40 41 42 43 43 42 41 41 40 39 38 36 34 33 33 34 36 39 42 44 46 48 50 50 50 48 47 47 47 47 46 46 46 46 46 47 46 46 45 43 41 40 40 40 40 40 39 38 38 38 37 37 37 38 45 52 54 52 51
39 38 37 35 34 33 32 31 30 30 29 27 26 26 26 28 29 30 31 32 33 34 35 35 36 37 38 39 40 41 43 43 43 43 41 40 38 37 34 32 31 31 32 34 37 39 42 44 46 49 50 51 49 48 47 47 46 46 46 47 47 47 47 47 47 46 44 42 42 42 41 41 41 40 40 40 39 38 38 38 39 43 48 50 51
38 36 34 33 32 31 30 28 28 28 27 27 27 27 28 29 29 30 30 31 31 31 32 32 33 33 34 35 36 38 39 40 41 41 40 38 37 35 33 31 30 30 30 31 33 35 37 40 42 45 47 49 50 50 49 48 47 47 46 47 47 47 47 48 48 47 46 44 43 43 43 43 43 42 41 42 42 40 39 39 39 39 42 44 46
35 33 32 32 32 30 29 28 28 28 27 27 28 29 29 29 29 28 28 29 29 29 29 29 29 30 31 32 33 34 34 35 36 36 36 36 35 33 32 31 30 30 30 30 31 32 34 36 38 41 43 46 48 50 51 50 50 49 48 47 47 47 47 48 48 47 47 45 44 44 44 44 44 44 43 43 43 43 41 40 40 39 40 42 43
32 31 32 32 31 30 29 29 29 29 28 28 29 29 29 28 27 27 27 27 26 26 26 26 26 27 28 28 29 30 30 31 32 32 33 33 32 32 31 30 30 29 29 29 29 29 30 32 33 36 39 42 45 48 50 52 52 51 50 48 47 47 47 47 47 47 47 46 45 45 45 45 45 45 45 44 44 45 45 43 42 41 40 41 42
31 32 32 32 31 30 30 30 30 29 29 29 29 28 28 27 26 25 25 25 24 24 24 25 25 25 26 26 26 27 27 27 28 29 29 30 30 30 30 29 29 28 28 28 28 28 28 28 29 30 33 37 41 45 48 50 51 52 52 51 49 47 46 46 47 47 47 47 46 46 46 46 46 47 47 46 45 46 46 46 44 43 42 42 42
31 32 32 31 31 30 30 30 29 29 29 29 28 27 27 26 25 24 23 23 22 22 23 24 24 25 25 25 25 25 25 25 25 25 26 27 28 29 29 29 28 28 28 28 29 29 29 28 28 28 30 33 36 40 43 46 48 50 52 52 51 49 47 47 47 47 47 47 47 47 47 47 47 47 48 47 47 47 47 47 47 45 44 43 43
32 32 32 31 30 30 29 29 29 29 29 28 27 27 26 25 24 23 22 22 21 21 22 23 23 23 24 24 24 24 24 24 24 24 24 24 24 25 26 28 28 29 28 28 29 29 30 29 28 28 29 30 32 35 38 41 44 46 48 51 52 51 50 48 47 46 46 47 47 47 47 47 47 47 48 48 48 48 48 49 49 48 46 44 43
32 32 31 30 29 29 29 29 28 29 28 27 26 26 25 24 23 22 21 21 21 20 21 21 22 22 22 23 23 23 23 23 23 23 23 23 22 22 23 24 26 27 28 28 28 28 29 29 28 28 29 29 29 31 33 36 38 41 44 46 49 50 51 50 48 47 47 47 47 47 47 48 47 47 48 48 49 49 49 49 49 49 48 46 45
31 31 30 30 29 29 29 29 29 29 28 27 26 26 25 23 22 21 20 20 20 20 21 21 21 21 22 22 23 23 23 23 23 22 22 22 22 22 22 22 23 24 25 26 27 27 28 28 27 28 29 29 29 29 30 31 33 36 38 41 44 46 49 50 49 48 47 47 47 47 47 48 48 48 48 48 49 49 50 50 50 50 49 48 47
30 30 30 30 29 29 29 29 30 29 28 26 25 25 24 23 21 21 20 20 20 20 21 21 22 22 22 22 23 23 23 23 22 22 22 23 23 22 22 22 22 22 23 23 24 24 26 27 27 27 28 29 29 29 29 30 30 32 33 36 38 41 44 47 48 49 48 47 47 48 48 48 48 48 48 49 49 50 50 50 50 50 50 50 49
30 30 30 30 29 29 29 30 30 29 27 26 25 24 23 22 22 21 20 19 20 20 21 22 23 23 23 23 23 23 22 22 22 21 21 22 22 23 23 23 23 22 22 22 22 22 23 24 25 26 27 27 28 29 29 30 30 30 31 32 34 37 39 42 44 46 47 48 47 48 48 49 49 49 49 49 49 50 50 50 51 51 51 51 51
29 29 29 29 28 28 29 29 29 28 26 25 24 24 23 22 22 21 20 20 20 21 22 23 23 24 24 24 23 23 22 21 21 21 21 21 22 23 24 24 24 24 24 23 23 22 22 23 23 24 25 26 27 28 28 29 30 30 31 31 32 34 35 37 39 42 45 46 47 47 48 49 49 50 50 50 50 50 51 51 51 51 51 51 52
28 28 27 27 28 28 29 29 28 27 26 25 25 24 22 22 22 21 21 20 20 21 22 23 24 24 24 24 23 22 22 21 21 21 22 22 23 24 25 25 26 26 26 26 25 24 23 23 22 23 24 25 26 27 28 28 29 30 30 31 32 33 34 35 35 37 40 43 44 45 46 48 49 50 50 51 51 51 51 51 51 51 52 52 52
28 27 27 27 28 28 28 28 27 26 25 25 25 24 23 22 22 22 21 20 20 21 22 23 24 24 24 23 23 22 22 22 23 23 24 25 26 26 27 27 27 27 27 28 27 27 26 25 24 23 23 23 24 25 26 28 28 29 29 30 32 33 33 34 35 35 36 38 40 42 44 45 47 49 50 51 51 52 52 52 52 52 52 52 53
28 28 28 28 28 27 27 26 25 25 25 24 24 24 23 23 23 22 21 21 21 22 23 23 23 23 23 23 23 23 23 24 25 25 26 28 29 29 30 30 29 28 28 28 28 28 27 27 27 26 24 24 23 23 24 26 27 28 28 29 30 31 33 34 35 35 36 36 37 39 40 42 44 46 48 50 51 52 53 53 53 53 53 53 54
29 28 28 27 27 26 25 25 24 24 23 23 23 23 23 23 23 23 22 22 22 22 23 22 22 22 22 22 23 24 25 26 27 28 29 30 31 32 32 31 31 30 29 28 28 28 28 28 28 28 27 26 25 24 23 23 24 26 27 28 29 29 30 32 33 34 35 36 36 37 38 39 40 42 45 48 49 51 53 54 54 54 53 54 55
29 28 27 26 26 25 24 24 23 23 23 23 22 23 23 23 23 23 23 23 23 22 22 21 21 21 22 23 23 25 26 28 29 31 33 34 34 34 33 32 31 31 30 29 28 28 28 28 28 28 28 28 28 27 26 24 23 23 24 26 27 28 29 30 31 32 33 35 36 36 37 37 38 39 41 43 46 48 51 53 54 54 54 54 55
28 27 26 25 25 24 23 23 23 23 23 23 23 23 23 23 23 23 23 23 22 21 20 19 20 22 23 24 25 26 28 30 32 34 36 38 38 38 36 34 32 31 31 30 29 29 28 28 28 28 28 28 29 28 28 26 25 24 23 23 24 26 27 28 29 30 31 33 34 35 36 37 37 38 38 40 41 44 46 49 52 54 54 55 55
27 26 26 25 24 23 23 23 23 23 23 23 23 22 22 22 21 21 21 20 20 19 19 20 21 23 24 26 27 29 31 33 35 37 39 40 40 39 37 35 34 33 32 31 30 30 29 29 29 28 28 28 29 29 28 28 27 26 25 24 24 24 25 26 28 29 30 31 32 33 34 35 36 37 38 38 39 40 42 45 47 50 52 54 55
27 26 25 24 23 22 22 22 22 22 22 22 22 21 20 20 19 19 18 18 18 19 20 21 23 24 25 27 29 32 34 36 38 40 41 40 40 39 37 36 34 32 31 30 30 29 29 28 28 28 28 28 28 28 28 28 28 27 26 25 25 25 24 24 25 27 28 30 31 32 33 34 35 36 37 38 38 39 40 41 43 45 48 50 52
27 26 25 24 22 21 21 22 22 22 22 22 21 20 19 19 18 18 19 19 20 21 22 24 25 27 28 30 31 34 36 38 40 41 41 40 38 37 35 34 32 31 30 29 29 29 28 28 27 27 27 27 27 28 28 28 28 27 27 26 26 26 25 25 25 25 26 27 29 31 32 33 34 35 36 37 37 38 39 40 41 43 44 46 49
26 25 24 23 21 21 21 22 22 22 22 22 21 20 20 19 20 20 20 21 22 23 24 26 27 29 30 32 34 36 38 39 40 40 39 37 34 33 32 31 31 30 29 29 28 28 28 28 27 26 26 26 26 27 27 27 28 28 27 27 27 27 26 26 26 25 25 25 26 28 30 32 33 34 35 36 37 37 38 39 41 42 43 44 45
24 23 22 22 21 21 21 22 22 23 22 22 22 22 22 22 22 22 23 24 24 25 26 27 28 30 32 34 36 37 39 39 38 36 33 31 29 29 29 29 29 29 28 28 27 27 27 27 27 26 26 25 25 26 26 26 27 27 28 28 27 27 27 27 27 26 26 26 25 26 27 28 31 33 34 35 36 37 38 38 39 41 42 43 44
22 22 21 21 21 21 21 21 22 22 22 22 22 22 23 23 24 24 24 25 26 27 28 29 30 32 34 35 37 38 38 37 34 31 28 27 27 27 27 27 28 27 27 27 26 26 26 26 25 25 25 25 24 25 25 25 26 26 27 28 28 28 28 28 27 27 27 27 26 26 26 26 27 29 31 33 35 36 37 38 39 40 41 42 43
22 21 21 21 21 20 20 21 21 22 22 22 22 23 24 24 24 25 25 26 27 28 29 30 32 34 35 36 36 35 34 31 30 28 27 26 26 26 27 27 27 27 26 26 25 24 24 24 24 24 23 23 23 24 24 24 25 25 26 27 28 28 28 28 28 28 28 28 28 27 27 27 27 27 28 30 32 34 35 37 38 39 40 41 42
22 21 21 21 20 20 20 21 21 21 22 22 23 23 24 24 25 25 26 27 28 30 31 33 34 34 35 35 34 31 28 27 27 27 28 27 27 26 27 26 26 25 25 24 24 23 23 22 22 22 22 22 22 22 23 23 23 24 25 26 27 28 28 29 29 29 29 29 29 29 29 28 28 28 27 28 29 30 32 33 35 37 39 40 41
23 22 21 21 20 20 20 20 21 21 22 22 23 23 24 25 25 26 27 29 30 32 33 33 34 34 33 32 29 26 25 25 25 26 27 27 26 26 26 25 25 24 23 23 23 22 22 21 20 20 20 20 20 20 21 22 22 22 23 24 25 26 27 28 29 29 30 30 30 30 30 30 29 29 29 28 28 28 29 30 31 33 35 37 39
22 22 21 21 20 19 19 19 20 21 22 22 23 24 24 25 26 27 29 30 31 32 32 33 33 31 29 27 26 25 25 25 25 25 26 26 25 25 25 24 24 23 22 22 22 21 21 20 19 19 19 19 19 19 19 20 20 21 21 22 23 24 25 26 27 28 29 30 31 31 31 31 31 30 30 29 29 29 29 29 29 30 31 33 35
22 22 21 21 20 20 19 19 20 21 22 22 23 24 25 26 27 28 29 30 30 31 31 31 30 27 25 25 25 26 26 25 25 25 25 25 25 24 24 23 22 22 22 21 21 20 20 19 19 19 18 18 18 18 18 18 18 19 19 20 21 22 23 24 25 26 27 28 30 31 32 32 32 32 31 31 31 30 30 29 29 29 29 30 31
23 22 22 21 20 20 20 20 20 21 21 22 23 24 25 26 27 28 28 29 30 30 29 28 27 26 25 25 26 26 26 25 25 25 25 24 24 23 22 21 21 21 21 20 20 19 19 19 19 18 18 18 17 17 17 18 18 18 18 18 19 20 21 22 22 23 24 25 26 28 30 31 32 32 32 32 32 32 31 31 31 30 30 30 29
23 22 21 21 20 20 19 19 19 20 21 22 23 24 25 25 26 27 28 29 29 28 26 26 26 26 26 26 26 26 25 25 24 24 23 22 22 21 20 20 20 19 19 19 19 19 19 18 18 18 18 18 17 17 17 17 17 17 18 18 18 19 20 20 21 22 23 23 24 25 27 28 30 31 32 32 33 33 32 32 32 32 32 31 31
22 21 20 20 19 19 19 19 19 20 21 22 23 24 25 26 27 28 28 28 27 26 25 25 25 25 25 26 26 25 25 24 23 22 21 20 20 19 19 19 19 18 18 18 19 19 19 19 19 19 18 18 18 17 17 17 17 17 17 18 18 19 19 20 20 21 22 23 24 24 25 26 27 28 30 31 32 32 33 33 33 33 33 33 33
20 20 20 19 19 20 20 21 21 22 22 23 24 25 26 27 28 28 27 26 26 25 24 24 24 24 25 25 24 24 23 22 21 20 19 19 18 18 18 18 18 18 18 18 19 19 19 19 19 19 19 18 18 18 18 18 18 18 18 18 18 19 19 20 20 21 21 21 22 23 24 25 26 27 28 29 30 31 32 33 34 34 34 34 35
20 20 20 21 21 22 22 22 23 23 24 25 26 27 27 27 27 26 26 26 25 25 24 23 23 24 24 24 23 22 22 21 20 19 19 18 18 18 18 18 17 18 18 18 19 19 19 19 19 19 20 20 20 20 19 19 19 19 19 19 19 19 19 20 20 21 21 21 21 21 22 23 24 25 26 28 29 30 31 32 33 34 35 35 35
21 22 23 23 23 23 23 23 23 24 25 26 27 27 26 25 24 24 24 24 24 24 23 23 23 23 24 23 22 21 21 20 19 19 18 18 18 18 18 18 18 18 18 18 18 19 19 20 20 20 21 21 21 21 21 20 20 20 20 20 20 20 20 20 20 20 20 20 20 20 20 20 21 22 24 25 26 28 29 31 32 34 35 36 37
23 23 23 23 23 23 23 24 25 25 26 26 26 25 25 24 23 23 23 24 23 23 23 23 23 23 23 22 21 21 20 20 19 18 18 18 18 18 18 18 18 19 19 19 19 20 20 21 21 22 22 21 21 21 21 21 21 21 21 21 21 21 21 20 20 20 20 20 20 20 20 20 20 20 21 22 24 25 26 28 30 31 33 34 36
24 23 23 23 23 23 24 24 25 26 26 26 25 25 24 23 23 23 23 23 23 23 23 23 23 23 22 22 21 21 20 20 19 19 19 19 19 19 19 19 19 19 20 20 21 21 22 22 23 23 23 23 22 22 22 22 22 22 22 22 22 22 22 22 22 21 21 21 21 20 20 20 20 20 20 21 22 23 24 26 27 28 30 32 33
23 22 22 23 23 23 24 25 25 26 27 27 26 25 24 24 24 24 24 24 24 24 24 23 23 23 23 22 21 21 21 21 20 19 19 19 19 19 20 20 20 21 21 21 21 22 22 23 24 24 23 23 23 22 22 22 22 22 22 22 22 22 22 22 22 22 22 22 22 22 22 22 21 21 21 21 21 21 22 23 24 26 27 29 31
22 22 23 23 24 24 25 25 26 26 26 27 27 26 25 24 24 25 25 25 25 25 24 24 24 24 23 23 22 22 22 21 21 20 20 20 20 20 20 20 21 21 22 22 22 22 23 23 24 24 23 22 22 22 22 22 22 22 22 22 22 22 22 22 22 23 23 23 23 23 23 23 23 23 23 23 23 23 23 23 23 24 25 26 27
22 23 23 24 24 25 25 26 26 26 26 27 27 27 27 26 26 25 25 25 25 25 25 25 25 24 24 23 23 23 22 22 22 21 20 20 20 20 20 21 21 21 22 22 22 22 23 23 23 23 23 22 22 22 22 22 22 22 22 22 22 22 22 22 22 23 23 23 23 23 23 24 24 24 24 24 24 24 24 24 24 25 25 25 26
22 23 23 24 25 25 26 26 27 27 27 27 28 28 28 28 27 26 26 26 26 26 26 26 25 25 24 24 24 23 23 23 22 22 21 21 21 21 20 21 21 21 21 22 22 22 22 22 23 23 22 22 22 22 22 22 22 22 22 22 22 22 22 22 22 22 22 22 22 23 23 23 23 24 24 24 24 25 25 25 25 25 26 26 26
22 22 23 24 24 25 26 27 27 28 28 29 29 29 29 29 29 28 27 27 26 26 26 26 26 25 24 24 24 24 24 23 22 22 21 21 21 21 21 21 21 21 21 21 21 21 22 22 22 22 22 22 22 22 22 22 22 22 22 23 22 22 22 22 22 22 22 22 22 22 23 23 23 23 24 24 24 25 25 25 26 26 26 26 27
Wind_Direction
297 298 299 298 297 297 296 296 295 294 293 292 292 291 291 290 290 289 289 289 288 287 286 284 283 282 281 280 279 278 277 276 275 274 273 273 272 271 271 270 270 269 268 267 267 266 266 265 264 262 262 263 263 264 264 264 262 261 261 261 260 259 259 257 253 250 247 242 239 237 237 236 235 235 236 237 237 235 234 234 235 235 235 235 235
297 298 298 297 296 295 295 295 294 294 294 294 294 293 293 293 292 292 292 291 291 290 290 289 288 287 286 284 282 280 278 276 275 274 273 271 270 269 268 268 267 267 267 266 266 265 265 264 264 262 261 261 261 261 262 262 262 261 260 260 260 258 256 256 255 253 252 249 244 241 241 239 236 235 235 237 239 239 237 236 235 235 235 235 235
299 299 298 297 296 296 296 296 296 296 296 296 296 296 296 295 295 295 295 295 295 294 294 294 293 292 292 291 289 287 284 281 278 276 274 273 271 269 267 267 266 265 264 264 264 264 264 264 264 263 262 260 259 259 260 260 261 261 260 258 258 258 256 255 254 252 253 253 250 246 244 243 241 238 235 236 239 241 240 238 237 236 236 235 235
301 300 299 299 299 299 299 299 299 299 299 298 298 298 298 298 299 299 299 300 300 300 300 300 299 298 297 296 294 293 291 288 285 282 278 276 273 271 269 267 266 265 264 263 262 262 262 262 263 263 262 261 260 259 258 259 259 260 260 259 257 256 254 253 253 252 251 253 254 251 248 247 247 244 239 235 236 239 240 240 239 238 237 236 236
301 300 299 300 300 300 300 300 299 299 298 298 298 298 299 299 300 301 302 303 304 304 304 304 304 303 302 301 300 298 296 294 292 289 285 281 278 275 272 270 268 266 264 264 263 262 261 261 261 262 262 261 260 259 257 257 258 258 259 259 258 256 254 251 250 250 250 250 252 252 251 250 250 249 245 239 236 236 238 238 239 239 238 237 237
299 298 299 299 298 298 298 298 298 297 297 296 296 297 297 298 299 301 302 304 305 306 306 306 305 304 303 302 302 301 300 298 295 293 291 288 284 280 276 273 270 268 266 264 263 263 262 261 261 260 261 261 261 260 258 256 256 256 256 258 258 257 255 253 250 248 248 249 250 251 251 250 250 251 249 245 240 237 236 236 236 237 239 239 239
298 299 298 298 297 297 297 296 296 295 295 295 295 296 296 298 299 301 302 303 304 304 303 303 302 302 301 301 300 300 299 299 298 296 294 292 289 285 280 276 273 270 268 266 265 263 263 262 261 261 260 260 260 261 260 258 256 255 254 255 256 257 257 255 252 249 247 247 249 250 250 250 250 251 251 249 246 243 239 235 233 235 237 239 240
299 298 298 297 297 297 296 296 296 295 295 295 295 295 295 296 298 299 300 300 300 300 299 298 297 297 297 297 297 297 296 296 296 296 295 294 292 288 282 278 275 272 270 268 266 264 263 262 262 262 261 260 260 260 260 260 258 256 255 254 254 255 256 256 254 251 249 247 247 248 249 249 249 250 251 250 249 248 245 237 231 232 236 238 240
297 297 296 297 297 296 295 296 297 297 296 295 295 294 295 296 297 298 299 300 300 299 298 297 296 295 294 294 293 293 294 294 294 294 294 294 294 291 285 279 276 274 272 270 267 265 264 262 261 261 261 261 260 260 260 260 260 258 256 255 253 253 254 255 255 252 250 247 246 247 248 247 247 247 248 249 249 249 249 243 234 231 234 236 238
296 296 296 296 295 294 294 296 297 297 296 296 296 296 297 298 299 300 301 301 301 301 301 300 299 298 297 295 293 292 291 291 292 292 292 293 294 293 288 281 278 275 274 273 270 268 266 263 261 260 260 261 261 261 261 261 260 259 257 256 254 252 252 252 253 253 250 248 246 246 246 247 246 246 246 247 247 246 247 247 241 236 235 236 236
296 296 295 293 292 292 292 295 296 295 295 296 297 298 299 300 300 301 303 303 304 304 304 303 303 302 300 298 296 294 292 291 290 291 291 292 292 291 287 284 281 278 276 275 274 273 270 267 264 261 259 259 259 261 262 261 260 259 258 256 255 253 252 251 251 252 251 250 247 246 245 246 246 246 245 246 247 247 245 245 245 242 240 239 237
296 295 293 292 292 291 291 293 293 294 295 297 298 299 300 300 301 303 304 305 305 306 306 306 306 306 305 304 302 300 298 296 293 292 291 292 292 291 288 285 284 282 280 278 276 275 273 271 268 265 261 258 257 258 259 260 260 259 258 257 255 254 253 252 251 252 252 251 249 247 246 245 246 246 245 244 246 247 246 245 245 244 243 243 241
295 293 293 293 293 292 291 291 293 295 297 298 298 299 300 300 302 304 305 306 306 308 309 309 310 310 311 311 310 308 306 303 300 297 295 294 294 292 290 288 286 285 283 282 279 276 275 274 273 271 266 262 258 257 257 257 258 259 259 258 257 254 253 252 251 251 251 251 249 248 247 246 245 246 245 244 244 246 247 246 245 244 244 245 244
295 294 294 295 296 295 293 292 294 296 298 298 299 299 299 300 302 303 304 306 308 310 311 312 313 315 317 318 318 317 316 313 309 304 299 296 295 294 292 290 287 285 284 283 282 281 279 278 278 277 274 269 264 260 257 255 255 256 257 257 257 256 254 252 251 250 250 250 249 248 247 247 245 245 245 244 243 244 246 247 246 244 244 245 245
296 296 297 298 298 297 295 294 295 297 298 299 298 298 299 300 301 302 305 307 309 311 313 315 317 319 320 321 322 323 324 323 321 316 310 303 298 294 292 290 288 286 284 282 281 282 282 282 282 281 277 273 270 265 260 257 256 256 255 255 256 256 255 254 252 251 250 250 250 249 248 247 246 246 246 246 245 244 245 246 247 245 243 243 245
298 298 300 301 300 298 296 295 297 298 299 298 297 297 298 299 300 302 304 306 307 311 314 316 318 320 321 321 322 324 326 327 327 326 323 318 311 304 297 293 289 286 284 282 281 281 281 282 283 281 278 275 273 271 266 262 259 258 256 255 254 254 255 254 253 252 251 250 250 249 249 248 247 246 246 246 246 245 244 245 246 246 245 243 244
301 302 303 303 301 299 297 298 299 299 299 297 296 296 297 297 299 301 302 304 306 310 314 316 317 318 319 320 321 322 324 325 326 327 327 327 325 321 314 306 298 292 287 284 282 281 280 280 280 278 277 277 276 275 273 269 265 262 259 257 255 253 253 253 253 252 251 250 250 249 249 248 248 247 246 246 247 247 246 245 246 247 247 246 245
304 305 304 304 302 300 300 300 300 300 298 296 294 294 295 296 298 300 301 303 306 309 312 314 314 315 316 317 319 320 322 323 324 325 326 326 327 327 325 322 316 308 301 293 287 283 280 279 277 275 276 276 276 276 276 274 271 268 264 261 259 256 253 252 252 251 251 250 250 250 249 249 248 248 247 246 247 247 247 246 246 246 247 247 246
306 305 304 304 303 302 302 301 301 300 297 294 293 294 295 295 297 299 300 302 305 307 310 311 311 312 314 315 317 318 319 321 322 324 324 325 325 325 325 325 323 320 316 310 302 292 284 280 277 276 275 274 274 274 274 274 274 272 269 266 263 260 257 254 252 252 251 249 249 250 250 249 249 248 248 247 247 247 247 247 247 246 247 247 247
306 304 303 303 303 302 301 301 300 299 295 293 293 293 293 294 296 298 299 301 303 305 307 308 309 310 312 314 315 316 317 318 320 321 322 323 323 324 324 324 322 321 320 318 314 307 298 289 283 279 276 274 273 272 271 270 270 270 270 268 266 264 261 257 254 253 252 250 248 248 249 250 249 249 249 248 247 247 247 247 247 247 247 247 248
305 304 303 303 303 302 301 300 299 297 293 292 292 292 292 293 295 297 298 299 302 304 306 307 308 309 311 313 314 314 315 315 316 318 319 320 320 320 320 320 320 319 318 317 315 312 309 303 295 288 282 277 274 272 270 269 268 267 266 266 266 266 265 262 258 255 253 252 250 248 248 248 249 250 250 249 249 248 248 248 248 247 247 247 247
307 307 306 305 304 302 301 301 299 297 295 294 294 294 293 293 295 296 297 299 302 304 305 306 307 309 310 311 311 312 312 313 314 315 316 317 317 316 316 315 315 314 314 313 312 311 309 307 304 299 293 287 280 275 272 269 267 265 264 263 263 263 264 264 262 260 256 254 252 250 248 247 247 248 249 250 250 249 249 248 248 248 248 247 247
310 310 308 305 304 303 302 302 300 298 297 296 296 296 295 294 295 296 297 300 302 304 305 306 307 307 308 309 309 310 311 311 312 314 315 316 316 315 314 312 311 309 308 307 307 306 306 305 303 301 299 296 291 284 278 273 269 266 264 262 261 260 261 262 262 262 260 258 255 253 251 249 247 247 247 248 249 250 250 249 249 248 248 249 248
312 309 307 304 303 303 303 303 301 300 299 298 297 297 296 295 295 296 298 300 303 305 306 306 306 306 307 308 309 310 311 312 313 314 315 316 316 314 313 310 308 306 304 303 301 301 301 301 300 300 298 297 295 291 286 280 274 270 267 264 262 260 259 259 260 260 261 260 258 256 253 251 250 248 247 247 248 249 250 250 249 249 248 249 249
309 307 305 304 303 303 304 304 304 303 302 300 299 298 296 295 295 296 298 300 302 305 306 305 305 306 307 309 310 311 312 314 315 316 316 316 315 313 311 309 306 304 302 299 298 297 296 296 296 296 296 296 295 293 290 286 281 276 271 268 265 263 261 259 259 259 259 259 259 258 257 254 252 251 249 248 247 248 249 249 249 249 248 248 249
308 306 305 305 304 305 306 307 308 308 307 306 304 301 299 297 296 296 297 299 302 304 305 305 305 306 307 309 311 312 313 314 315 316 317 316 315 313 311 308 306 303 301 299 296 294 293 292 292 291 292 293 293 293 292 289 286 282 277 273 269 266 264 262 260 259 258 258 259 259 258 257 255 254 252 250 249 248 248 249 249 249 249 248 248
309 308 306 306 306 307 309 311 313 313 313 312 310 306 303 300 299 298 299 300 303 304 305 306 307 308 309 310 310 312 313 315 316 317 317 317 316 314 312 310 307 304 302 299 297 295 292 291 289 288 287 287 287 288 288 288 287 285 283 280 275 270 267 264 262 261 259 259 259 258 258 258 257 256 255 253 251 250 249 249 249 249 249 249 249
310 309 307 306 307 310 313 315 317 318 318 317 315 312 310 307 305 303 303 303 304 305 306 307 309 310 310 311 312 313 314 315 316 317 317 317 315 314 312 311 308 306 303 301 298 295 293 291 288 286 284 283 282 282 283 283 283 283 283 282 281 278 273 268 265 262 261 259 259 259 258 258 257 256 256 255 254 253 251 250 250 250 250 250 250
312 310 307 306 308 311 314 317 319 321 322 321 319 318 316 314 312 310 308 307 306 307 308 309 309 309 309 311 312 314 315 315 316 317 317 316 315 313 312 310 309 307 305 303 301 299 296 293 290 287 284 281 279 278 278 279 279 280 280 280 281 280 279 276 271 267 263 261 259 258 258 258 257 257 256 255 254 254 253 252 251 251 251 251 250
313 311 308 307 308 311 314 317 320 322 323 323 322 320 320 319 317 314 312 310 309 309 310 310 310 310 310 311 312 314 315 316 316 316 316 315 314 312 311 310 309 309 307 306 305 303 300 298 295 292 289 285 281 278 276 275 275 276 277 277 277 278 278 278 277 274 270 266 262 260 258 258 258 257 257 256 255 253 253 253 252 252 252 252 251
315 312 310 308 308 310 312 316 320 322 322 321 320 319 319 318 316 314 312 311 310 310 310 310 310 311 312 313 314 315 316 316 315 315 314 313 313 312 312 311 311 311 310 309 307 305 303 301 298 296 294 290 287 282 279 276 274 273 273 273 273 273 273 274 275 275 274 272 268 265 262 260 259 258 257 257 256 255 254 253 252 252 252 252 252
319 316 313 310 309 309 311 314 318 321 321 320 319 318 317 316 315 313 312 311 310 310 310 310 310 312 313 315 316 316 316 316 315 314 314 314 314 314 315 315 314 313 312 311 309 307 305 303 301 299 296 293 291 287 283 280 276 274 273 271 270 270 269 270 270 271 272 272 271 269 267 265 262 260 259 258 257 256 256 254 254 253 252 252 252
324 321 317 313 310 309 309 311 315 319 320 320 319 319 317 316 315 314 313 313 312 311 311 311 312 313 315 316 317 317 316 316 315 315 315 317 318 318 319 319 318 317 316 314 313 311 308 306 304 301 299 296 293 290 287 284 280 277 275 273 272 271 269 269 268 269 269 270 270 270 269 268 267 265 263 261 259 258 257 256 255 254 254 253 252
327 325 322 317 313 310 309 310 313 317 319 320 319 319 318 317 316 316 315 315 313 313 313 314 315 316 317 317 317 317 318 318 318 319 320 321 322 322 323 322 321 320 319 318 317 315 312 309 307 304 302 299 295 291 288 285 283 281 278 276 275 273 272 271 270 269 269 269 269 269 269 269 268 267 266 265 263 262 260 258 257 255 254 254 254
328 327 325 321 316 313 310 311 313 317 319 319 318 317 317 317 317 316 316 316 315 315 315 317 318 318 318 318 318 319 321 323 323 323 323 325 326 326 325 324 322 322 321 321 320 319 316 314 311 309 306 302 298 294 291 288 285 282 280 278 277 275 275 274 273 272 271 270 269 269 269 269 268 268 268 267 266 265 264 262 260 258 256 255 255
325 327 327 325 321 316 313 313 315 317 319 318 317 317 316 317 317 317 317 316 316 317 318 319 319 319 318 318 320 323 326 327 327 325 325 327 328 327 326 325 325 325 325 324 324 323 321 319 317 314 311 307 304 300 296 293 289 286 283 281 279 277 276 275 274 273 272 271 270 269 268 268 268 268 268 267 267 266 266 265 264 262 260 258 256
326 327 328 327 325 321 318 316 316 317 318 317 317 317 317 317 317 317 317 317 318 319 320 320 319 319 320 322 325 327 330 331 330 329 328 329 330 329 328 328 328 329 329 328 327 326 325 324 322 320 318 315 313 309 305 301 297 293 289 286 283 281 279 277 276 275 274 273 271 270 268 267 267 266 266 266 266 266 267 267 266 266 264 262 260
335 334 333 331 329 326 323 320 318 317 317 317 317 317 318 318 318 318 318 320 320 321 321 321 321 324 327 329 330 332 333 334 334 333 332 332 333 332 331 332 332 332 332 331 330 329 328 327 326 326 325 323 320 317 314 311 307 303 299 295 290 287 285 283 280 279 277 276 274 272 271 269 267 266 265 265 264 264 265 265 266 266 266 266 265
342 341 339 336 334 331 328 324 321 319 319 318 319 319 319 319 320 321 322 322 322 323 324 325 328 331 333 333 334 335 336 337 337 336 335 335 335 334 334 335 337 337 336 335 334 333 333 332 331 330 329 327 324 322 320 318 315 313 309 306 301 297 293 290 288 285 284 281 279 276 273 271 269 268 267 266 265 264 264 263 264 264 265 266 266
342 342 341 340 338 335 332 330 328 327 326 325 324 323 323 323 324 324 325 325 325 327 330 332 333 334 334 335 337 338 338 339 339 338 337 337 337 337 338 340 341 341 340 339 339 339 339 338 338 337 335 333 330 328 325 322 320 317 315 312 309 307 303 299 296 292 289 288 286 282 278 274 271 269 268 267 266 266 265 264 264 264 264 265 265
342 342 343 342 340 339 337 336 336 334 333 331 329 328 328 327 327 327 327 328 330 333 335 336 336 335 336 337 338 338 338 339 339 338 337 338 339 339 341 343 343 343 342 342 342 343 343 343 342 340 338 336 334 332 330 328 325 323 320 317 314 312 309 306 302 298 293 289 287 286 283 279 275 271 269 267 267 266 266 266 265 265 265 264 265
345 346 347 346 345 343 341 340 339 337 335 334 332 331 329 328 328 329 330 333 335 337 338 338 337 337 336 337 338 338 338 339 339 338 338 339 340 340 341 342 343 343 343 343 344 345 345 344 343 340 338 337 336 335 334 333 331 329 327 324 321 318 315 311 308 304 300 295 290 287 284 281 278 275 272 270 268 267 266 266 266 266 265 265 265
350 350 348 347 345 343 341 340 339 338 336 335 333 331 330 330 330 332 335 337 339 340 340 340 339 337 336 337 339 339 338 338 339 339 338 339 340 340 340 341 343 344 343 343 344 344 343 341 340 339 338 337 336 335 334 333 332 330 328 327 325 322 319 316 313 310 306 302 298 293 288 284 281 278 275 273 271 269 268 268 267 267 266 265 265
351 348 345 344 344 343 342 341 340 339 337 336 334 332 332 333 334 336 338 341 342 343 343 342 340 338 338 339 340 339 338 339 340 339 338 339 340 340 340 341 343 343 342 341 341 340 338 336 335 336 335 334 332 332 331 329 328 327 326 325 324 322 320 318 316 314 311 308 305 301 296 291 287 282 279 276 274 272 271 270 269 269 268 267 267
348 345 345 346 346 345 344 343 342 341 341 339 338 337 336 337 338 339 341 344 345 346 346 344 343 342 342 342 341 340 339 340 340 340 339 340 340 340 339 340 341 339 337 336 336 335 334 333 332 330 329 329 329 329 328 327 326 325 324 323 322 321 320 319 318 317 315 313 311 308 305 300 296 291 287 283 279 276 274 273 271 271 270 269 269
347 347 349 348 348 347 347 346 347 348 347 345 343 341 340 340 340 340 342 344 345 345 345 345 344 345 345 344 342 340 340 341 341 340 339 339 339 338 338 338 338 336 334 333 333 332 332 331 330 328 327 327 327 327 326 326 326 325 324 323 322 321 320 320 319 319 318 317 315 314 312 309 306 302 297 292 288 285 281 279 276 274 273 272 271
349 350 351 351 351 352 352 352 352 352 351 348 345 343 342 341 340 340 340 341 341 341 342 342 342 343 343 342 340 338 338 339 339 338 338 338 336 336 336 337 336 334 333 332 332 332 332 332 331 329 329 329 329 329 328 328 327 325 324 322 321 320 319 319 319 319 318 318 317 316 315 314 312 310 307 304 300 297 293 289 285 282 279 277 275
350 351 352 353 354 354 353 353 352 353 354 352 349 345 342 341 340 340 340 339 338 338 337 337 337 337 337 336 335 334 334 335 335 335 336 335 334 334 335 335 334 333 333 333 334 335 335 335 334 333 333 333 334 334 334 332 331 329 326 324 322 321 320 320 319 319 318 317 317 317 317 316 315 313 311 309 308 306 304 301 298 295 291 287 284
352 351 352 352 352 351 350 350 350 351 352 353 352 350 348 344 342 339 338 337 336 335 334 333 333 333 332 331 330 329 329 330 331 332 332 332 332 333 333 333 333 332 333 334 336 338 338 338 337 337 338 339 340 340 340 339 337 334 332 330 328 326 324 323 321 320 318 318 317 317 317 316 314 313 311 309 307 305 304 303 302 301 299 297 294
353 352 351 351 350 350 349 349 349 350 349 349 350 351 350 349 347 344 341 339 337 334 332 331 330 329 328 327 326 326 326 327 328 329 329 329 329 330 331 331 331 331 332 334 337 338 339 338 338 338 340 342 344 345 344 343 343 341 339 338 336 333 331 329 326 324 321 319 318 317 316 315 314 313 311 309 307 305 303 302 302 301 301 300 299
356 355 354 353 353 352 352 351 351 351 350 349 348 347 347 347 346 346 346 345 343 340 338 335 333 330 328 325 323 324 325 325 326 326 326 326 327 328 328 328 329 329 331 333 334 336 337 337 337 338 340 342 344 345 346 345 345 345 344 343 342 341 339 336 333 330 327 323 320 319 317 316 315 314 313 312 310 308 306 304 303 301 300 300 300
Height
5852 5851 5849 5848 5846 5845 5843 5841 5839 5837 5836 5834 5832 5831 5829 5828 5826 5825 5823 5821 5820 5818 5817 5816 5815 5814 5813 5812 5811 5810 5809 5808 5807 5807 5807 5807 5807 5807 5807 5807 5807 5807 5808 5808 5808 5809 5808 5808 5809 5811 5811 5811 5812 5813 5813 5814 5815 5815 5815 5816 5817 5818 5819 5820 5821 5821 5822 5823 5825 5827 5827 5829 5831 5833 5834 5835 5837 5840 5843 5846 5848 5850 5852 5854 5855
5850 5849 5847 5846 5844 5842 5840 5837 5835 5833 5831 5829 5827 5825 5824 5822 5820 5818 5817 5815 5814 5812 5811 5809 5808 5807 5806 5805 5804 5803 5803 5802 5801 5801 5801 5801 5801 5801 5801 5801 5801 5802 5802 5802 5803 5803 5803 5803 5803 5805 5806 5807 5807 5808 5808 5809 5810 5811 5811 5812 5812 5814 5815 5816 5817 5818 5818 5818 5821 5823 5823 5824 5826 5827 5829 5831 5832 5834 5837 5840 5842 5844 5846 5849 5851
5847 5846 5844 5842 5840 5838 5835 5833 5830 5828 5826 5824 5821 5819 5817 5816 5814 5812 5810 5809 5807 5806 5804 5803 5801 5800 5799 5798 5796 5796 5795 5795 5795 5794 5794 5794 5794 5794 5795 5794 5795 5795 5796 5796 5797 5797 5797 5797 5798 5798 5800 5801 5802 5803 5803 5804 5804 5805 5806 5808 5808 5809 5811 5812 5813 5814 5814 5814 5815 5818 5818 5818 5820 5822 5824 5826 5827 5828 5831 5833 5836 5838 5841 5843 5845
5843 5841 5839 5837 5835 5832 5830 5827 5825 5823 5820 5818 5816 5814 5812 5810 5808 5806 5804 5803 5802 5800 5799 5797 5796 5794 5793 5791 5790 5789 5788 5787 5787 5787 5787 5787 5787 5787 5788 5788 5788 5788 5788 5789 5790 5791 5791 5791 5792 5792 5793 5794 5795 5797 5798 5798 5799 5800 5800 5802 5803 5804 5806 5807 5808 5809 5810 5810 5810 5812 5813 5814 5815 5817 5818 5820 5821 5822 5825 5827 5829 5832 5834 5837 5840
5839 5836 5834 5832 5830 5828 5825 5823 5820 5818 5816 5814 5812 5810 5808 5806 5804 5802 5800 5798 5797 5795 5793 5792 5790 5789 5787 5786 5785 5783 5782 5781 5780 5780 5779 5780 5780 5780 5780 5781 5781 5781 5781 5782 5783 5784 5785 5785 5786 5786 5787 5787 5788 5790 5792 5792 5793 5794 5795 5795 5797 5799 5800 5802 5804 5805 5806 5806 5806 5807 5808 5809 5810 5811 5812 5814 5816 5817 5819 5821 5823 5825 5827 5830 5833
5835 5833 5831 5829 5827 5824 5822 5819 5817 5815 5813 5810 5808 5806 5804 5802 5800 5798 5796 5795 5793 5791 5789 5787 5785 5784 5782 5781 5779 5778 5777 5776 5774 5774 5773 5772 5772 5773 5773 5773 5773 5773 5774 5775 5776 5776 5777 5778 5779 5780 5780 5781 5782 5783 5785 5786 5787 5788 5789 5789 5790 5792 5794 5796 5798 5799 5800 5801 5801 5801 5803 5804 5805 5806 5807 5808 5810 5811 5813 5814 5816 5819 5821 5823 5826
5831 5829 5827 5825 5823 5820 5818 5816 5813 5811 5809 5807 5805 5803 5801 5799 5797 5796 5794 5792 5790 5788 5786 5784 5782 5780 5778 5776 5774 5773 5772 5771 5769 5768 5767 5767 5766 5766 5766 5766 5766 5765 5766 5767 5768 5769 5770 5771 5772 5773 5774 5775 5775 5776 5777 5779 5781 5782 5783 5783 5784 5785 5787 5789 5791 5793 5795 5796 5796 5796 5797 5799 5800 5801 5802 5803 5804 5805 5807 5808 5810 5812 5814 5816 5819
5827 5825 5822 5820 5818 5816 5814 5812 5810 5808 5805 5803 5801 5800 5798 5796 5795 5793 5791 5790 5788 5785 5783 5781 5778 5776 5774 5772 5770 5768 5767 5766 5765 5763 5762 5761 5760 5760 5760 5759 5759 5758 5758 5759 5760 5761 5762 5763 5764 5766 5767 5768 5769 5770 5771 5772 5774 5775 5776 5777 5778 5779 5780 5782 5784 5786 5788 5790 5791 5791 5792 5793 5795 5796 5796 5798 5798 5799 5801 5802 5804 5806 5808 5812 5815
5822 5820 5818 5816 5814 5811 5809 5808 5806 5803 5801 5799 5798 5796 5795 5794 5792 5790 5788 5786 5784 5781 5779 5777 5774 5772 5770 5768 5766 5764 5762 5760 5759 5758 5757 5756 5754 5754 5754 5753 5753 5753 5752 5752 5752 5753 5754 5755 5757 5758 5759 5761 5763 5764 5765 5766 5767 5768 5769 5770 5772 5773 5774 5775 5777 5779 5782 5784 5785 5785 5786 5787 5789 5790 5791 5792 5793 5795 5796 5797 5799 5801 5803 5808 5811
5817 5815 5813 5811 5809 5807 5806 5804 5802 5800 5798 5796 5794 5793 5792 5790 5789 5787 5784 5782 5780 5777 5775 5772 5770 5768 5766 5764 5761 5759 5757 5755 5754 5753 5752 5751 5749 5748 5748 5748 5748 5748 5747 5746 5746 5746 5747 5748 5749 5751 5752 5754 5756 5757 5758 5759 5760 5761 5762 5763 5764 5766 5768 5769 5770 5772 5775 5777 5779 5780 5781 5782 5783 5785 5786 5787 5788 5790 5791 5792 5794 5796 5798 5801 5805
5812 5810 5808 5806 5805 5803 5802 5800 5798 5796 5794 5793 5791 5790 5788 5786 5785 5782 5780 5778 5776 5773 5771 5768 5766 5764 5761 5759 5757 5755 5753 5751 5749 5748 5746 5746 5744 5743 5743 5742 5742 5742 5742 5742 5741 5741 5741 5741 5742 5744 5745 5747 5748 5749 5750 5751 5752 5754 5755 5756 5757 5759 5761 5762 5764 5766 5768 5771 5773 5774 5775 5776 5777 5779 5781 5782 5783 5785 5786 5788 5789 5791 5792 5794 5798
5807 5805 5804 5802 5800 5799 5798 5796 5794 5792 5791 5789 5787 5785 5784 5782 5780 5778 5776 5774 5772 5769 5767 5765 5762 5760 5757 5755 5753 5751 5749 5747 5745 5743 5742 5741 5740 5739 5738 5738 5737 5737 5737 5737 5736 5736 5735 5736 5736 5737 5738 5740 5741 5741 5742 5743 5744 5746 5748 5750 5751 5752 5754 5756 5758 5759 5761 5764 5766 5767 5769 5770 5771 5772 5775 5777 5778 5779 5781 5783 5784 5786 5787 5789 5791
5803 5801 5799 5797 5796 5795 5793 5792 5789 5788 5786 5785 5783 5781 5779 5778 5776 5774 5772 5770 5768 5766 5763 5761 5759 5756 5754 5752 5749 5747 5745 5743 5741 5739 5738 5737 5735 5735 5734 5733 5733 5732 5732 5732 5731 5731 5731 5731 5731 5732 5732 5733 5733 5734 5734 5735 5736 5738 5740 5742 5743 5745 5748 5749 5751 5753 5754 5756 5759 5760 5762 5764 5765 5766 5768 5771 5773 5773 5775 5776 5778 5780 5782 5783 5785
5798 5796 5794 5793 5791 5790 5788 5786 5785 5783 5782 5780 5778 5777 5775 5773 5771 5770 5768 5766 5764 5762 5760 5758 5755 5753 5751 5749 5746 5744 5742 5740 5738 5736 5734 5733 5732 5731 5730 5729 5729 5728 5728 5727 5726 5726 5726 5726 5727 5727 5727 5726 5726 5725 5726 5728 5729 5730 5732 5733 5736 5738 5741 5743 5744 5746 5748 5749 5751 5753 5754 5756 5758 5760 5762 5764 5767 5768 5769 5770 5772 5774 5776 5778 5779
5793 5792 5790 5788 5787 5785 5783 5782 5780 5779 5777 5775 5774 5772 5771 5769 5767 5766 5764 5762 5760 5758 5756 5754 5752 5750 5748 5746 5744 5742 5740 5737 5735 5733 5731 5729 5728 5727 5726 5725 5725 5724 5724 5723 5722 5721 5721 5722 5722 5722 5721 5720 5719 5718 5720 5721 5722 5723 5724 5726 5728 5731 5733 5735 5737 5740 5741 5743 5744 5746 5747 5749 5751 5753 5755 5757 5760 5761 5763 5764 5766 5768 5770 5773 5774
5789 5787 5786 5784 5782 5780 5779 5777 5776 5775 5773 5771 5769 5768 5767 5765 5763 5762 5760 5758 5757 5755 5753 5751 5749 5747 5745 5743 5741 5739 5737 5735 5733 5731 5729 5727 5725 5723 5722 5721 5720 5720 5719 5718 5718 5717 5717 5717 5718 5717 5715 5714 5714 5714 5714 5715 5716 5716 5717 5718 5720 5723 5726 5728 5730 5733 5734 5736 5738 5739 5741 5742 5744 5747 5749 5750 5752 5754 5756 5758 5760 5762 5764 5767 5769
5785 5783 5781 5780 5778 5776 5774 5773 5772 5770 5769 5767 5765 5764 5763 5761 5760 5758 5757 5755 5753 5752 5750 5749 5747 5745 5743 5741 5739 5737 5735 5733 5731 5729 5727 5725 5723 5721 5719 5717 5716 5715 5714 5714 5713 5713 5712 5713 5713 5711 5709 5709 5710 5709 5709 5709 5709 5710 5711 5711 5713 5716 5718 5720 5723 5725 5727 5729 5731 5732 5734 5736 5738 5740 5742 5743 5745 5747 5749 5752 5753 5756 5758 5761 5763
5781 5779 5777 5775 5773 5772 5771 5769 5768 5766 5765 5763 5762 5760 5759 5758 5756 5755 5753 5752 5750 5749 5747 5746 5744 5742 5741 5739 5737 5735 5733 5731 5729 5727 5725 5723 5721 5719 5717 5715 5713 5712 5710 5709 5709 5708 5708 5708 5708 5706 5705 5705 5705 5705 5705 5704 5704 5704 5705 5706 5706 5708 5710 5712 5715 5718 5720 5723 5724 5726 5728 5729 5731 5733 5735 5736 5738 5740 5742 5745 5747 5749 5751 5753 5756
5777 5775 5773 5771 5770 5768 5767 5765 5764 5762 5761 5760 5758 5757 5755 5754 5753 5751 5750 5748 5747 5745 5744 5742 5741 5739 5738 5736 5734 5732 5731 5729 5727 5725 5723 5721 5719 5717 5715 5713 5711 5709 5708 5706 5705 5704 5703 5703 5703 5702 5701 5701 5700 5700 5700 5700 5700 5700 5700 5700 5700 5701 5703 5705 5707 5710 5712 5715 5718 5719 5721 5723 5724 5726 5728 5730 5731 5733 5735 5737 5740 5742 5744 5746 5748
5773 5771 5769 5767 5766 5765 5763 5761 5760 5759 5757 5756 5755 5753 5752 5751 5749 5748 5747 5745 5743 5742 5741 5739 5738 5736 5735 5733 5731 5730 5728 5726 5724 5722 5721 5719 5716 5715 5713 5711 5709 5707 5705 5704 5702 5700 5699 5698 5698 5698 5697 5697 5696 5696 5696 5696 5696 5695 5695 5695 5695 5695 5696 5698 5700 5702 5704 5707 5710 5712 5714 5716 5718 5719 5721 5723 5724 5726 5728 5730 5733 5735 5737 5739 5741
5769 5767 5765 5764 5763 5761 5759 5758 5756 5755 5754 5753 5751 5750 5749 5747 5746 5745 5743 5742 5740 5739 5738 5736 5735 5733 5732 5730 5728 5727 5725 5723 5722 5720 5718 5717 5715 5712 5711 5709 5707 5705 5703 5701 5700 5698 5696 5695 5694 5693 5693 5692 5692 5692 5692 5691 5691 5691 5691 5691 5691 5690 5691 5692 5694 5695 5697 5699 5702 5705 5707 5709 5711 5712 5714 5716 5718 5719 5721 5723 5725 5728 5730 5732 5734
5765 5764 5762 5761 5759 5757 5756 5754 5753 5752 5750 5749 5748 5747 5745 5744 5743 5742 5740 5739 5737 5736 5735 5733 5732 5730 5729 5727 5725 5724 5722 5721 5719 5718 5716 5714 5712 5710 5708 5706 5704 5702 5700 5698 5697 5695 5693 5692 5691 5689 5689 5688 5688 5687 5687 5687 5687 5687 5687 5687 5687 5686 5686 5687 5688 5689 5690 5692 5695 5697 5700 5702 5704 5706 5707 5709 5711 5712 5714 5716 5718 5721 5723 5725 5727
5762 5760 5759 5757 5756 5754 5753 5751 5750 5748 5747 5746 5744 5743 5742 5741 5740 5738 5737 5736 5734 5733 5732 5730 5728 5727 5725 5724 5722 5721 5719 5718 5716 5715 5713 5711 5709 5707 5706 5704 5702 5700 5697 5695 5693 5692 5690 5689 5687 5686 5685 5684 5683 5683 5682 5682 5682 5682 5682 5682 5682 5682 5682 5682 5683 5683 5685 5686 5688 5690 5692 5694 5697 5699 5701 5702 5704 5705 5706 5708 5711 5714 5716 5718 5719
5759 5758 5756 5755 5753 5751 5750 5748 5747 5745 5744 5743 5741 5740 5739 5738 5736 5735 5734 5733 5731 5730 5729 5727 5725 5724 5722 5721 5719 5718 5716 5714 5713 5711 5709 5708 5706 5704 5702 5700 5698 5696 5694 5692 5690 5688 5687 5685 5683 5682 5681 5680 5679 5679 5678 5677 5677 5677 5677 5677 5677 5678 5678 5678 5678 5679 5680 5681 5682 5683 5685 5687 5689 5691 5693 5695 5697 5698 5699 5701 5703 5706 5708 5710 5712
5756 5755 5753 5752 5750 5749 5747 5745 5744 5743 5741 5740 5738 5737 5735 5734 5733 5732 5731 5729 5728 5727 5725 5724 5722 5721 5719 5718 5716 5714 5713 5711 5709 5707 5705 5704 5702 5700 5698 5696 5694 5692 5690 5689 5687 5685 5683 5682 5680 5678 5677 5676 5675 5675 5674 5673 5673 5672 5672 5672 5673 5673 5673 5673 5674 5674 5675 5675 5676 5678 5679 5681 5682 5684 5686 5688 5689 5691 5692 5693 5696 5698 5700 5702 5704
5754 5752 5751 5749 5747 5746 5744 5743 5741 5740 5738 5737 5735 5734 5732 5731 5730 5729 5727 5726 5725 5724 5722 5721 5719 5718 5716 5715 5713 5711 5709 5707 5705 5703 5701 5699 5697 5695 5693 5691 5689 5688 5686 5684 5683 5681 5679 5678 5676 5675 5673 5672 5671 5670 5670 5669 5669 5668 5668 5668 5668 5668 5668 5668 5669 5669 5670 5670 5671 5672 5673 5674 5676 5677 5679 5680 5682 5683 5685 5686 5688 5690 5692 5694 5696
5751 5749 5748 5746 5745 5743 5741 5740 5738 5737 5735 5733 5732 5730 5729 5728 5727 5725 5724 5723 5722 5721 5719 5718 5716 5714 5713 5711 5710 5708 5706 5704 5701 5699 5697 5694 5692 5689 5688 5686 5684 5682 5681 5679 5678 5676 5675 5673 5672 5671 5669 5668 5667 5666 5665 5665 5664 5664 5664 5663 5663 5663 5663 5663 5664 5664 5665 5665 5666 5667 5668 5669 5670 5671 5672 5674 5675 5676 5678 5679 5680 5682 5684 5686 5688
5748 5746 5745 5743 5742 5740 5739 5737 5736 5734 5732 5731 5729 5728 5726 5725 5724 5722 5721 5720 5719 5718 5716 5715 5713 5712 5710 5708 5706 5704 5702 5700 5698 5695 5692 5690 5687 5684 5682 5680 5679 5677 5675 5674 5672 5671 5670 5668 5667 5666 5665 5664 5663 5662 5661 5660 5660 5660 5659 5659 5659 5659 5658 5659 5659 5659 5659 5660 5660 5661 5662 5663 5664 5665 5666 5667 5668 5670 5671 5672 5673 5675 5676 5678 5680
5745 5743 5742 5740 5739 5738 5736 5735 5733 5731 5730 5728 5726 5725 5724 5722 5721 5720 5719 5717 5716 5715 5714 5712 5710 5709 5707 5705 5703 5700 5698 5696 5693 5691 5688 5685 5682 5679 5677 5675 5673 5672 5670 5668 5667 5665 5664 5663 5662 5661 5660 5659 5658 5657 5657 5656 5655 5655 5655 5655 5655 5654 5654 5654 5654 5654 5654 5655 5655 5656 5656 5657 5658 5658 5660 5661 5662 5663 5664 5666 5667 5668 5669 5670 5672
5742 5740 5738 5737 5736 5735 5733 5732 5730 5729 5727 5726 5724 5723 5721 5720 5719 5718 5716 5715 5714 5712 5711 5709 5707 5705 5704 5702 5700 5697 5694 5692 5689 5686 5683 5680 5678 5675 5672 5670 5668 5667 5665 5663 5661 5660 5659 5657 5656 5656 5655 5654 5653 5652 5652 5651 5651 5651 5651 5650 5650 5650 5650 5650 5650 5650 5650 5650 5650 5650 5651 5651 5652 5652 5653 5654 5656 5657 5658 5659 5660 5662 5662 5663 5665
5739 5737 5736 5734 5733 5732 5731 5729 5728 5726 5725 5724 5722 5721 5719 5718 5717 5715 5714 5713 5711 5710 5708 5707 5705 5702 5700 5698 5696 5693 5690 5688 5685 5682 5679 5676 5673 5671 5668 5666 5664 5662 5660 5659 5657 5655 5654 5652 5651 5651 5650 5649 5648 5647 5647 5646 5646 5646 5646 5646 5646 5646 5646 5646 5646 5645 5645 5645 5645 5645 5646 5646 5646 5647 5647 5648 5649 5650 5651 5653 5654 5655 5656 5657 5658
5736 5735 5733 5732 5731 5730 5728 5727 5726 5724 5723 5721 5720 5719 5717 5716 5714 5713 5712 5710 5708 5707 5705 5703 5701 5699 5697 5694 5692 5689 5686 5683 5680 5677 5675 5672 5669 5667 5665 5662 5660 5658 5656 5654 5653 5651 5650 5648 5647 5646 5645 5644 5643 5643 5642 5642 5641 5641 5641 5641 5641 5641 5641 5641 5641 5641 5641 5641 5641 5641 5641 5641 5641 5641 5642 5642 5643 5644 5645 5646 5647 5648 5649 5651 5652
5734 5732 5731 5730 5728 5727 5726 5725 5723 5722 5720 5719 5718 5716 5715 5713 5712 5710 5709 5707 5705 5704 5702 5700 5698 5696 5693 5690 5688 5685 5682 5678 5676 5673 5671 5669 5666 5664 5661 5659 5657 5655 5653 5651 5649 5647 5646 5644 5643 5642 5641 5640 5639 5638 5638 5637 5637 5636 5636 5636 5636 5636 5636 5636 5637 5637 5637 5637 5637 5637 5637 5637 5636 5636 5636 5637 5637 5638 5639 5640 5641 5642 5643 5644 5645
5732 5730 5729 5727 5726 5725 5724 5722 5721 5720 5718 5717 5715 5714 5712 5711 5709 5708 5706 5704 5702 5700 5698 5696 5694 5692 5689 5686 5684 5681 5678 5675 5672 5669 5667 5665 5663 5660 5658 5656 5653 5651 5649 5647 5646 5644 5642 5641 5639 5638 5637 5636 5635 5634 5633 5633 5632 5632 5632 5631 5631 5631 5631 5631 5632 5632 5632 5632 5632 5632 5632 5632 5632 5632 5632 5632 5632 5632 5633 5634 5635 5636 5636 5637 5638
5730 5728 5727 5725 5724 5722 5721 5720 5719 5718 5716 5715 5713 5712 5710 5708 5707 5705 5703 5701 5699 5697 5695 5693 5690 5688 5685 5682 5680 5677 5675 5672 5669 5666 5664 5662 5660 5657 5655 5653 5651 5649 5647 5645 5643 5641 5639 5638 5636 5635 5634 5633 5631 5630 5629 5629 5628 5628 5627 5627 5627 5626 5626 5626 5627 5627 5627 5627 5627 5627 5627 5627 5627 5628 5628 5627 5627 5628 5628 5628 5629 5629 5630 5631 5632
5728 5727 5725 5723 5721 5720 5719 5718 5716 5715 5714 5712 5711 5709 5708 5706 5704 5702 5700 5698 5696 5693 5691 5689 5686 5684 5681 5679 5676 5674 5672 5669 5666 5664 5661 5659 5657 5655 5652 5650 5648 5646 5644 5642 5640 5638 5637 5635 5634 5632 5631 5629 5628 5627 5626 5625 5625 5624 5624 5623 5623 5622 5622 5622 5622 5622 5622 5622 5622 5622 5622 5622 5622 5623 5623 5623 5623 5623 5623 5623 5623 5624 5624 5625 5626
5726 5724 5723 5721 5719 5718 5717 5716 5714 5713 5712 5710 5708 5707 5705 5703 5701 5699 5697 5695 5692 5690 5688 5685 5683 5681 5678 5675 5673 5671 5669 5666 5664 5661 5659 5656 5654 5652 5650 5648 5645 5643 5642 5640 5638 5636 5634 5633 5631 5630 5628 5627 5626 5625 5623 5622 5621 5621 5620 5619 5619 5618 5618 5618 5617 5617 5617 5617 5616 5616 5617 5617 5617 5617 5618 5618 5618 5618 5618 5618 5618 5618 5619 5619 5620
5724 5722 5721 5719 5717 5716 5715 5713 5712 5711 5709 5708 5706 5704 5703 5701 5699 5697 5694 5692 5690 5687 5685 5682 5680 5677 5675 5672 5670 5668 5665 5663 5661 5659 5656 5654 5651 5649 5647 5645 5643 5641 5640 5638 5636 5634 5633 5631 5629 5628 5626 5625 5624 5622 5621 5620 5619 5618 5617 5616 5615 5615 5614 5614 5613 5613 5613 5612 5611 5611 5611 5611 5612 5612 5612 5613 5613 5613 5613 5613 5613 5614 5614 5614 5615
5722 5720 5719 5717 5715 5714 5712 5711 5710 5709 5707 5705 5704 5702 5700 5698 5696 5694 5692 5690 5687 5685 5682 5679 5676 5674 5672 5670 5667 5665 5663 5660 5658 5656 5654 5652 5649 5648 5646 5644 5642 5640 5638 5636 5634 5633 5631 5629 5628 5626 5625 5623 5622 5620 5619 5618 5616 5615 5614 5613 5612 5611 5611 5610 5609 5609 5608 5608 5607 5606 5606 5606 5606 5606 5607 5607 5607 5608 5608 5608 5608 5608 5609 5609 5609
5721 5719 5718 5716 5714 5712 5711 5709 5708 5706 5705 5703 5701 5699 5697 5695 5693 5691 5689 5687 5684 5682 5679 5676 5674 5671 5669 5667 5665 5663 5661 5658 5656 5654 5652 5650 5648 5646 5644 5642 5641 5639 5637 5635 5633 5631 5630 5628 5626 5625 5623 5621 5620 5618 5617 5616 5614 5613 5612 5610 5609 5608 5607 5606 5605 5605 5604 5604 5603 5602 5601 5601 5601 5601 5601 5601 5602 5602 5602 5603 5603 5603 5603 5604 5604
5720 5719 5717 5715 5713 5711 5710 5708 5706 5704 5703 5701 5699 5697 5695 5693 5691 5689 5686 5684 5681 5679 5677 5674 5672 5669 5667 5665 5663 5661 5659 5657 5655 5653 5651 5649 5647 5645 5643 5641 5640 5638 5636 5634 5632 5630 5628 5627 5625 5623 5622 5620 5618 5617 5615 5614 5612 5611 5609 5608 5607 5605 5604 5603 5602 5601 5600 5600 5599 5598 5597 5597 5596 5596 5596 5596 5596 5596 5597 5597 5597 5598 5598 5598 5599
5720 5718 5716 5714 5712 5710 5708 5707 5705 5703 5701 5699 5697 5695 5693 5691 5688 5686 5684 5681 5679 5677 5674 5672 5670 5667 5665 5663 5661 5659 5657 5655 5654 5652 5650 5648 5646 5644 5642 5641 5639 5637 5635 5633 5631 5629 5627 5626 5624 5622 5621 5619 5617 5615 5614 5612 5610 5609 5607 5606 5604 5603 5601 5600 5599 5598 5597 5596 5595 5594 5593 5593 5592 5591 5591 5591 5591 5591 5591 5591 5591 5592 5592 5593 5593
5719 5717 5715 5713 5711 5709 5707 5705 5703 5701 5699 5697 5695 5693 5691 5688 5686 5684 5682 5679 5677 5675 5672 5670 5668 5666 5664 5662 5660 5658 5656 5654 5652 5651 5649 5647 5645 5643 5641 5639 5638 5636 5634 5632 5630 5628 5627 5625 5623 5621 5619 5618 5616 5614 5612 5610 5608 5607 5605 5604 5602 5600 5599 5597 5596 5594 5593 5592 5591 5590 5590 5589 5588 5587 5587 5586 5586 5586 5586 5586 5586 5586 5586 5586 5587
5718 5716 5714 5712 5710 5708 5706 5704 5702 5700 5698 5695 5693 5691 5689 5686 5684 5682 5680 5678 5676 5673 5671 5669 5666 5664 5662 5660 5658 5656 5654 5653 5651 5649 5647 5646 5644 5642 5640 5638 5636 5635 5633 5631 5629 5628 5626 5624 5622 5620 5618 5616 5614 5612 5611 5609 5607 5605 5603 5601 5600 5598 5597 5595 5594 5592 5591 5589 5588 5587 5586 5585 5584 5583 5583 5582 5582 5581 5581 5581 5580 5580 5580 5580 5580
5718 5716 5713 5711 5709 5707 5705 5703 5701 5698 5696 5694 5692 5689 5687 5685 5683 5681 5679 5676 5674 5672 5669 5667 5665 5663 5661 5659 5657 5655 5653 5651 5650 5648 5646 5644 5642 5641 5639 5637 5635 5633 5632 5630 5628 5626 5625 5623 5621 5619 5617 5615 5613 5611 5609 5607 5605 5603 5601 5599 5597 5596 5594 5593 5591 5590 5588 5587 5585 5584 5583 5582 5581 5580 5579 5578 5577 5577 5576 5576 5575 5575 5574 5574 5573
5717 5715 5712 5710 5708 5706 5704 5702 5699 5697 5695 5692 5690 5688 5686 5683 5681 5679 5677 5675 5673 5671 5668 5666 5664 5662 5660 5658 5656 5654 5652 5650 5648 5646 5645 5643 5641 5639 5637 5635 5634 5632 5630 5629 5627 5625 5623 5621 5619 5617 5615 5613 5610 5608 5606 5604 5602 5600 5599 5597 5595 5593 5592 5590 5588 5587 5585 5584 5582 5581 5579 5578 5577 5576 5575 5574 5573 5572 5571 5571 5570 5569 5569 5568 5567
5716 5714 5712 5710 5708 5705 5703 5701 5698 5696 5694 5691 5689 5687 5684 5682 5680 5678 5676 5673 5671 5669 5667 5665 5663 5661 5659 5657 5655 5653 5651 5649 5647 5645 5643 5641 5639 5638 5636 5634 5632 5630 5629 5627 5625 5623 5621 5619 5617 5615 5613 5610 5608 5606 5604 5602 5600 5598 5596 5594 5593 5591 5589 5587 5586 5584 5583 5581 5579 5578 5576 5575 5574 5572 5571 5570 5569 5568 5567 5566 5565 5564 5563 5562 5562
5716 5714 5712 5709 5707 5705 5703 5700 5698 5696 5694 5691 5688 5685 5683 5681 5679 5676 5674 5672 5670 5668 5666 5664 5662 5660 5658 5656 5654 5651 5649 5647 5645 5643 5642 5640 5638 5636 5634 5632 5630 5629 5627 5625 5623 5621 5619 5617 5615 5613 5611 5608 5606 5604 5602 5600 5598 5596 5594 5592 5590 5588 5587 5585 5583 5582 5580 5578 5577 5575 5574 5572 5570 5569 5568 5566 5565 5564 5562 5561 5560 5559 5558 5557 5556
5716 5713 5711 5709 5707 5705 5702 5700 5698 5696 5693 5690 5688 5685 5682 5680 5677 5675 5673 5670 5668 5666 5664 5662 5660 5658 5656 5654 5652 5650 5648 5646 5644 5642 5640 5638 5636 5634 5632 5630 5628 5627 5625 5623 5621 5619 5617 5615 5613 5611 5609 5607 5604 5602 5600 5598 5596 5594 5592 5590 5588 5586 5584 5582 5581 5579 5577 5576 5574 5572 5571 5569 5568 5566 5564 5563 5562 5560 5559 5557 5556 5555 5553 5552 5551
5715 5713 5711 5709 5707 5704 5702 5700 5697 5695 5692 5690 5687 5684 5682 5679 5676 5674 5671 5669 5667 5664 5662 5660 5658 5656 5654 5652 5650 5648 5646 5644 5642 5640 5638 5636 5634 5632 5630 5628 5627 5625 5623 5621 5619 5617 5615 5613 5611 5609 5607 5605 5603 5600 5598 5596 5594 5592 5590 5588 5586 5584 5582 5580 5578 5576 5575 5573 5571 5570 5568 5566 5565 5563 5561 5560 5558 5557 5555 5554 5552 5551 5549 5548 5546
5715 5713 5711 5709 5706 5704 5702 5699 5697 5694 5691 5689 5686 5683 5680 5678 5675 5673 5670 5668 5665 5663 5661 5659 5656 5654 5652 5650 5648 5646 5644 5642 5640 5638 5636 5634 5632 5630 5628 5626 5625 5623 5621 5619 5617 5615 5613 5611 5610 5608 5606 5603 5601 5599 5597 5595 5593 5591 5588 5586 5584 5582 5580 5578 5576 5574 5572 5571 5569 5567 5565 5564 5562 5560 5558 5557 5555 5553 5551 5550 5548 5547 5545 5544 5542